Location: Bílinka
(49.3579°N, 14.3767°E)
Time: 22:09:33
(UTC+00:00)

BlueWalker 3 - Pass Details

Date: 28 January 2023
Orbit: 497 x 514 km, 53.2° (Epoch: 29 March)

Event Time Altitude Azimuth Distance (km) Brightness Sun altitude
Rises 17:03:56 0° 227° (SW) 2,587 6.7 -11.8°
Reaches altitude 10° 17:06:08 10° 222° (SW) 1,710 5.5 -12.2°
Maximum altitude 17:09:53 51° 147° (SSE) 646 2.3 -12.8°
Enters shadow 17:12:08 22° 79° (E) 1,153 3.1 -13.1°
